STARLINK-1372, 45543

Orbit data source: Space-Track

STARLINK-1372, 45543 is a payload satellite owned by SpaceX/Seattle (US) in LEO that was launched on Wed, 22 Apr 2020 UTC via an FALCON 9 launch vehicle from the Air Force Eastern Test Range (AFETR). Payload-class satellites include a variety of spacecraft equipped with specific instruments for various scientific and technological missions. These include communications satellites like Starlink; space stations such as the ISS; scientific satellites like the Hubble; Earth observation satellites from companies like Planet Labs, Umbra, and HawkEye 360; GPS; miniature CubeSats for education and research; and military/defense satellites.

Loading next visibility...
Identifier
45543, 2020-025N
Orbit
LEO
Country
Flag of USUS
Related business
Manufacturer
SpaceX/Seattle
Mission
Operational Commercial Communications
Bus & Motor
STARLINK, Unknown motor
Mass
260 kg wet, ~248 kg dry
Launch date (UTC)
2020-04-22 (5 years ago)
Launch vehicle
FALCON 9
Launch site
Air Force Eastern Test Range (AFETR)
Object type
Payload
Rocket body
Debris
Shape & HBR
Box + 1 Pan, 10.1 m
Radar Cross Section
13.562 m², Large (>1 m²)

Expand to show TLE details & history
Last TLE update: 18 hours ago

TLE from 18 hours ago
0 STARLINK-1372
1 45543U 20025N   25287.58326547 -.00000754  00000-0 -31738-4 0  9998
2 45543  53.0554  42.5146 0001238  92.8810 267.2321 15.06380779302160
Epoch: 2025-10-14T13:59Z
TLE epoch observation values (Epoch: 2025-10-14T13:59:54.136Z)
Latitude
-0°
Longitude
169.16942°
Altitude
548.191 km
Speed
7.589 km/s
True Right ascension
02h 50m 03s
True Declination
0° 00' 00"
Sunlit
Object was in full shadow at epoch
Visualization orbit readout
Latitude
Unknown
Longitude
Unknown
Altitude
Unknown
Speed
Unknown
Apparent Right ascension
Unknown
Apparent Declination
Unknown
Sunlit
N/A
Visualization observer readout
Local Sidereal Time
02:17:28
Azimuth
Unknown
Elevation
Unknown
Doppler factor
Unknown
Orbital elements
Apogee altitude
548.398 km
Perigee altitude
546.684 km
Semi-major axis
6,925.678 km
Eccentricity
0.00012
Inclination
53.0554°
RAAN
42.5146°
Arg. of periapsis
92.881°
True anomaly
267.21793°
Mean anomaly
267.2321°
Eccentric anomaly
267.22502°
Mean motion
3.76573 °/min
Orbital period
95.6 mins
BSTAR
-0.000031738
Loading maneuver chart data...
Computing Atmospheric mass density...

Documentation

Showing up to 5 results
|